[[{"header":{"parameterUnit":"m.s-1","parameterCategory":1,"la1":30.2991,"la2":30.254,"lo1":-89.0895,"lo2":-89.0444,"dy":0.0017,"dx":0.0017,"nx":28,"ny":28,"refTime":"2025-07-05T09:00:00:Z","depth":0,"parameterNumber":2,"parameterNumberName":"U-component_of_WINDS"},"data":[0,0,0,0,0,0,0,0,0,0,0,0,0,0,0,0,0,0,0,0,0,0,0,0,0,0,0,0,0,0,0,0,0,0,0,0,0,0,0,0,0,0,0,0,0,0,0,0,0,0,0,0,0,0,0,0,0,0,-0.8264,-0.8263,0,-0.8228,-0.8228,-0.8227,-0.8152,-0.8151,-0.8149,-0.8148,-0.8113,-0.8113,-0.8114,0,0,0,0,0,0,0,0,0,0,0,0,0,-0.8268,-0.8268,-0.8264,-0.8263,-0.8263,-0.8228,-0.8228,-0.8227,-0.8153,-0.8151,-0.8149,-0.8147,-0.8113,-0.8113,-0.8114,0,0,0,0,0,0,0,0,0,0,0,0,0,-0.8253,-0.8268,-0.8264,-0.8221,-0.8217,-0.8228,-0.8228,-0.8227,-0.8153,-0.8151,-0.8148,-0.8146,-0.8113,-0.8113,-0.8114,-0.8164,0,0,-0.8116,-0.8117,0,0,0,0,0,0,0,0,-0.8254,-0.8253,-0.8228,-0.8224,-0.822,-0.8192,-0.8216,-0.8206,-0.8153,-0.8177,-0.8148,-0.8145,-0.8141,-0.814,-0.8138,-0.8162,-0.8161,-0.8116,-0.8117,-0.8117,-0.8117,0,0,0,0,0,0,0,-0.8255,-0.8254,-0.825,-0.8228,-0.8223,-0.8204,-0.82,-0.8214,-0.8173,-0.8175,-0.817,-0.8166,-0.8139,-0.8137,-0.8137,-0.816,-0.8116,-0.8117,-0.8117,-0.8118,-0.8223,-0.8225,0,0,0,0,0,0,-0.8262,-0.8255,-0.8251,-0.8249,-0.8231,-0.8206,-0.8201,-0.8203,-0.8172,-0.8165,-0.8168,-0.8163,-0.8137,-0.8136,-0.8135,-0.8191,-0.8117,-0.8118,-0.8118,-0.8221,-0.8224,-0.8226,0,0,0,0,0,0,-0.8262,-0.8262,-0.8252,-0.825,-0.8248,-0.8208,-0.8212,-0.8204,-0.8202,-0.8167,-0.8159,-0.8175,-0.8135,-0.8134,-0.8157,-0.8188,-0.8118,-0.8119,-0.8218,-0.8222,-0.8225,-0.8303,0,0,0,0,0,0,-0.8263,-0.8263,-0.8281,-0.8251,-0.8248,-0.8275,-0.8214,-0.8205,-0.8204,-0.8196,-0.8171,-0.8165,-0.8134,-0.8156,-0.8158,-0.8188,-0.8119,-0.8215,-0.822,-0.8224,-0.8297,-0.8309,-0.8318,0,0,0,0,0,-0.8263,-0.8305,-0.8283,-0.8282,-0.827,-0.8277,-0.8275,-0.8238,-0.8207,-0.8225,-0.8202,-0.8165,-0.8185,-0.8159,-0.816,-0.8191,-0.8213,-0.8218,-0.8223,-0.8293,-0.8306,-0.8318,0,0,0,0,0,0,-0.8341,-0.83,-0.8275,-0.8308,-0.8296,-0.8264,-0.8286,-0.8254,-0.8251,-0.8244,-0.8199,-0.8194,-0.8223,-0.8209,-0.8182,-0.8238,-0.8193,-0.8199,-0.8245,-0.8258,-0.8268,-0.8271,-0.812,0,0,0,0,0,-0.8361,-0.837,-0.8334,-0.8367,-0.8363,-0.8326,-0.8327,-0.8299,-0.8285,-0.828,-0.8259,-0.8247,-0.825,-0.8254,-0.8255,-0.8295,-0.8288,-0.8317,-0.8328,-0.8336,-0.8342,-0.8361,-0.8373,-0.8244,-0.8244,-0.8244,0,0,-0.8405,-0.8384,-0.8392,-0.8382,-0.837,-0.8379,-0.8322,-0.8335,-0.8341,-0.8282,-0.8302,-0.8287,-0.827,-0.8302,-0.8315,-0.8292,-0.8376,-0.8343,-0.835,-0.8351,-0.8368,-0.838,-0.8391,-0.8247,-0.8247,-0.8246,0,0,-0.8488,-0.8474,-0.8499,-0.8488,-0.8469,-0.8444,-0.845,-0.8422,-0.8409,-0.8429,-0.8384,-0.8392,-0.8399,-0.8389,-0.8384,-0.8464,-0.843,-0.8466,-0.852,-0.854,-0.855,-0.8559,-0.8586,-0.8597,-0.8471,-0.8472,-0.8472,0,-0.8545,-0.8557,-0.8516,-0.8532,-0.8529,-0.8475,-0.85,-0.8491,-0.8475,-0.8474,-0.8448,-0.8455,-0.844,-0.8468,-0.8487,-0.8486,-0.8491,-0.8468,-0.8552,-0.856,-0.8568,-0.8593,-0.8604,-0.8476,-0.8475,-0.8475,-0.8475,0,-0.8627,-0.8636,-0.8659,-0.8643,-0.8643,-0.8663,-0.8626,-0.863,-0.8603,-0.8581,-0.8601,-0.8581,-0.8577,-0.8582,-0.8556,-0.8606,-0.8592,-0.856,-0.8514,-0.8585,-0.8608,-0.8618,-0.8482,-0.8481,-0.8479,-0.8478,0,0,-0.8758,-0.8719,-0.8728,-0.872,-0.8695,-0.8702,-0.872,-0.8715,-0.8719,-0.871,-0.8723,-0.873,-0.87,-0.8695,-0.8667,-0.8685,-0.8748,-0.865,-0.8649,-0.8668,-0.8801,-0.8824,-0.8837,-0.8725,-0.8727,-0.8728,-0.8802,0,-0.8835,-0.8863,-0.8827,-0.8863,-0.887,-0.8819,-0.8835,-0.8822,-0.8802,-0.8805,-0.8783,-0.8788,-0.8748,-0.8745,-0.876,-0.8737,-0.8773,-0.8731,-0.8737,-0.8737,-0.8741,-0.8849,-0.8874,-0.8944,-0.8811,-0.8812,-0.8813,0,-0.8929,-0.8923,-0.8959,-0.8932,-0.8934,-0.8948,-0.894,-0.8945,-0.8929,-0.8913,-0.8908,-0.8874,-0.889,-0.8846,-0.8866,-0.8838,-0.8838,-0.8828,-0.8829,-0.8828,-0.8779,-0.8849,-0.8966,-0.8976,-0.8827,-0.8826,-0.8825,0,-0.902,-0.9021,-0.9042,-0.9037,-0.9006,-0.9017,-0.9005,-0.8986,-0.8986,-0.8979,-0.8978,-0.8974,-0.8972,-0.8969,-0.8935,-0.8907,-0.896,-0.8913,-0.8946,-0.8947,-0.8959,-0.8958,-0.9077,-0.8961,-0.8961,-0.8961,-0.8961,0,-0.9109,-0.9133,-0.9082,-0.9096,-0.9121,-0.9079,-0.9106,-0.9088,-0.9072,-0.9081,-0.9037,-0.9047,-0.9002,-0.9006,-0.898,-0.9001,-0.9,-0.8987,-0.898,-0.8991,-0.8992,-0.8989,-0.8983,-0.8964,-0.8963,-0.8963,-0.8962,0,-0.9214,-0.9181,-0.9201,-0.917,-0.9163,-0.9183,-0.9156,-0.9167,-0.9143,-0.9155,-0.9156,-0.912,-0.9122,-0.9089,-0.9085,-0.9068,-0.91,-0.9084,-0.9105,-0.9099,-0.9134,-0.9131,-0.9253,-0.9267,-0.9145,-0.9146,-0.9147,0,-0.9273,-0.929,-0.926,-0.9263,-0.9252,-0.9257,-0.9256,-0.9216,-0.9216,-0.9199,-0.9212,-0.9211,-0.9208,-0.9216,-0.9189,-0.9186,-0.9169,-0.9213,-0.9169,-0.9178,-0.9168,-0.9167,-0.9168,-0.9222,-0.9223,-0.9224,-0.9225,0,-0.938,-0.9363,-0.9362,-0.9356,-0.9356,-0.9349,-0.934,-0.9345,-0.9301,-0.9304,-0.9306,-0.9304,-0.93,-0.9299,-0.9291,-0.9278,-0.9245,-0.924,-0.9247,-0.9257,-0.9268,-0.9261,-0.9129,-0.9237,-0.9236,-0.9235,-0.9234,-0.9234,-0.9463,-0.9475,-0.9456,-0.9457,-0.9445,-0.9438,-0.9446,-0.9424,-0.9425,-0.9418,-0.9394,-0.94,-0.9383,-0.9369,-0.9359,-0.9363,-0.9342,-0.9353,-0.9355,-0.9358,-0.9364,-0.9269,-0.9362,-0.9361,-0.9361,-0.9361,-0.936,0,-0.9566,-0.9552,-0.9553,-0.9541,-0.9541,-0.9509,-0.9497,-0.95,-0.9505,-0.9492,-0.949,-0.9492,-0.9492,-0.9465,-0.9461,-0.9469,-0.9453,-0.9469,-0.9468,-0.9465,-0.9384,-0.9377,-0.9482,-0.9482,-0.9482,-0.9482,-0.9482,-0.9482,-0.962,-0.9639,-0.962,-0.9633,-0.9617,-0.9623,-0.9618,-0.9611,-0.96,-0.9604,-0.9603,-0.9585,-0.9567,-0.9561,-0.9558,-0.955,-0.955,-0.9571,-0.9558,-0.9483,-0.9471,-0.946,-0.9453,-0.9572,-0.9572,-0.9639,-0.9639,-0.964]},{"header":{"parameterUnit":"m.s-1","parameterCategory":1,"la1":30.2991,"la2":30.254,"lo1":-89.0895,"lo2":-89.0444,"dy":0.0017,"dx":0.0017,"nx":28,"ny":28,"refTime":"2025-07-05T09:00:00:Z","depth":0,"parameterNumber":3,"parameterNumberName":"V-component_of_WINDS"},"data":[0,0,0,0,0,0,0,0,0,0,0,0,0,0,0,0,0,0,0,0,0,0,0,0,0,0,0,0,0,0,0,0,0,0,0,0,0,0,0,0,0,0,0,0,0,0,0,0,0,0,0,0,0,0,0,0,0,0,-2.2885,-2.2886,0,-2.2902,-2.2902,-2.2903,-2.2871,-2.287,-2.2869,-2.2868,-2.2884,-2.2885,-2.2886,0,0,0,0,0,0,0,0,0,0,0,0,0,-2.2824,-2.2826,-2.2885,-2.2886,-2.2886,-2.2902,-2.2902,-2.2903,-2.2871,-2.287,-2.2869,-2.2867,-2.2883,-2.2885,-2.2887,0,0,0,0,0,0,0,0,0,0,0,0,0,-2.2847,-2.2826,-2.2885,-2.2872,-2.2871,-2.2902,-2.2902,-2.2903,-2.2871,-2.287,-2.2868,-2.2867,-2.2883,-2.2885,-2.2887,-2.2931,0,0,-2.2893,-2.2894,0,0,0,0,0,0,0,0,-2.2846,-2.2849,-2.2874,-2.2873,-2.2872,-2.2883,-2.2887,-2.2912,-2.2872,-2.2871,-2.2868,-2.2866,-2.2885,-2.2886,-2.2893,-2.2932,-2.2933,-2.2893,-2.2895,-2.2896,-2.2896,0,0,0,0,0,0,0,-2.2844,-2.2848,-2.2892,-2.2874,-2.2873,-2.2865,-2.2866,-2.2891,-2.2886,-2.2871,-2.2869,-2.2871,-2.2884,-2.2891,-2.2893,-2.2933,-2.2893,-2.2895,-2.2896,-2.2897,-2.3008,-2.3009,0,0,0,0,0,0,-2.2845,-2.2847,-2.2891,-2.2893,-2.2855,-2.2867,-2.2869,-2.2881,-2.2886,-2.2885,-2.2873,-2.287,-2.2888,-2.2891,-2.2894,-2.2945,-2.2896,-2.2897,-2.2899,-2.3006,-2.3008,-2.301,0,0,0,0,0,0,-2.2843,-2.2849,-2.2891,-2.2869,-2.2874,-2.287,-2.2884,-2.2882,-2.2889,-2.2887,-2.2886,-2.2881,-2.2887,-2.2891,-2.2922,-2.2945,-2.2898,-2.29,-2.3004,-2.3007,-2.3009,-2.3048,0,0,0,0,0,0,-2.2842,-2.2849,-2.2866,-2.287,-2.2875,-2.2919,-2.2885,-2.2884,-2.2893,-2.289,-2.2895,-2.2894,-2.2886,-2.2919,-2.2924,-2.2947,-2.2902,-2.3002,-2.3005,-2.3008,-2.3045,-2.3051,-2.3057,0,0,0,0,0,-2.284,-2.2876,-2.2867,-2.2872,-2.2897,-2.2921,-2.2924,-2.2914,-2.2895,-2.2912,-2.2911,-2.2894,-2.2942,-2.2922,-2.2928,-2.2952,-2.3,-2.3004,-2.3008,-2.3042,-2.305,-2.3057,0,0,0,0,0,0,-2.2874,-2.2876,-2.2866,-2.2905,-2.2913,-2.2915,-2.2936,-2.2924,-2.2937,-2.2933,-2.292,-2.2921,-2.2955,-2.2956,-2.2935,-2.2994,-2.2968,-2.2973,-2.2992,-2.3,-2.3006,-2.3004,-2.2904,0,0,0,0,0,-2.2887,-2.2906,-2.2907,-2.2941,-2.2946,-2.2941,-2.2951,-2.2943,-2.295,-2.2953,-2.2954,-2.2962,-2.2978,-2.2989,-2.3004,-2.3045,-2.3045,-2.3064,-2.3071,-2.3076,-2.308,-2.31,-2.3108,-2.3022,-2.3022,-2.3022,0,0,-2.2912,-2.2916,-2.2929,-2.2948,-2.2954,-2.2973,-2.2944,-2.2966,-2.2981,-2.2956,-2.2986,-2.2987,-2.2994,-2.303,-2.3046,-2.3032,-2.3104,-2.3081,-2.3085,-2.3086,-2.3105,-2.3113,-2.312,-2.3025,-2.3024,-2.3024,0,0,-2.2968,-2.2973,-2.3002,-2.3008,-2.3016,-2.3012,-2.3019,-2.3024,-2.3023,-2.3053,-2.3035,-2.3051,-2.3081,-2.3086,-2.3093,-2.3151,-2.3136,-2.3157,-2.3189,-2.3209,-2.3216,-2.3222,-2.3241,-2.3249,-2.3161,-2.3161,-2.3161,0,-2.2998,-2.3028,-2.3018,-2.3042,-2.305,-2.303,-2.3058,-2.3064,-2.3077,-2.3083,-2.3068,-2.3104,-2.3108,-2.3144,-2.3158,-2.3165,-2.3171,-2.3155,-2.3216,-2.3222,-2.3227,-2.3245,-2.3253,-2.3163,-2.3163,-2.3163,-2.3163,0,-2.3064,-2.3085,-2.3107,-2.312,-2.3131,-2.3157,-2.315,-2.3163,-2.3154,-2.3152,-2.3181,-2.3185,-2.32,-2.3208,-2.32,-2.3243,-2.3235,-2.3218,-2.3191,-2.3238,-2.3255,-2.3262,-2.3167,-2.3166,-2.3165,-2.3165,0,0,-2.3141,-2.3148,-2.3156,-2.3162,-2.3169,-2.3185,-2.321,-2.3225,-2.3235,-2.3245,-2.3264,-2.329,-2.3274,-2.3282,-2.3274,-2.3292,-2.3336,-2.3273,-2.3273,-2.3283,-2.3382,-2.3393,-2.3402,-2.3327,-2.3328,-2.3329,-2.3381,0,-2.3195,-2.3238,-2.323,-2.3271,-2.329,-2.3271,-2.3292,-2.3299,-2.3297,-2.3312,-2.3311,-2.3328,-2.3308,-2.3312,-2.3329,-2.3327,-2.3355,-2.3323,-2.3343,-2.3344,-2.334,-2.3411,-2.3422,-2.3471,-2.3388,-2.3389,-2.339,0,-2.3264,-2.3276,-2.332,-2.3324,-2.3331,-2.3351,-2.3363,-2.3378,-2.3385,-2.3383,-2.3392,-2.338,-2.3404,-2.3378,-2.341,-2.3388,-2.3396,-2.3396,-2.3398,-2.3398,-2.3369,-2.3411,-2.3487,-2.3493,-2.34,-2.3399,-2.3399,0,-2.3314,-2.3342,-2.3371,-2.3376,-2.3382,-2.3396,-2.3399,-2.3404,-2.3414,-2.3425,-2.343,-2.3444,-2.3452,-2.3462,-2.3454,-2.3436,-2.3487,-2.3461,-2.3485,-2.3485,-2.3495,-2.3494,-2.3571,-2.3503,-2.3503,-2.3503,-2.3502,0,-2.3375,-2.3401,-2.3393,-2.3411,-2.344,-2.343,-2.3459,-2.346,-2.3465,-2.3482,-2.3467,-2.3483,-2.3473,-2.3488,-2.3482,-2.3508,-2.3512,-2.351,-2.3508,-2.3511,-2.3511,-2.3514,-2.351,-2.3505,-2.3504,-2.3504,-2.3503,0,-2.3435,-2.343,-2.346,-2.3464,-2.3465,-2.3486,-2.3489,-2.3505,-2.3503,-2.3524,-2.3529,-2.3525,-2.3542,-2.3536,-2.3554,-2.355,-2.3583,-2.3577,-2.3581,-2.3578,-2.3602,-2.3599,-2.3683,-2.3693,-2.362,-2.3621,-2.3621,0,-2.3472,-2.3493,-2.3498,-2.3508,-2.3513,-2.353,-2.3539,-2.353,-2.3541,-2.355,-2.3565,-2.3581,-2.3593,-2.3621,-2.3619,-2.3632,-2.3626,-2.3654,-2.3628,-2.3629,-2.3624,-2.3622,-2.3624,-2.3659,-2.366,-2.3661,-2.3661,0,-2.354,-2.3537,-2.3551,-2.3565,-2.3576,-2.3587,-2.3595,-2.3605,-2.3596,-2.3609,-2.3626,-2.3635,-2.3654,-2.3669,-2.3682,-2.3684,-2.3671,-2.367,-2.3676,-2.3678,-2.3678,-2.3676,-2.3593,-2.3668,-2.3667,-2.3666,-2.3666,-2.3666,-2.3589,-2.3605,-2.3611,-2.3628,-2.3633,-2.3642,-2.3657,-2.3657,-2.3671,-2.3685,-2.368,-2.3699,-2.3705,-2.372,-2.3724,-2.3739,-2.3728,-2.3737,-2.3739,-2.3741,-2.3743,-2.3677,-2.3742,-2.3741,-2.3741,-2.3741,-2.3741,0,-2.3653,-2.3656,-2.3672,-2.3684,-2.3697,-2.3685,-2.3694,-2.3705,-2.3723,-2.373,-2.3742,-2.3761,-2.3776,-2.3776,-2.3789,-2.3801,-2.3795,-2.3805,-2.3803,-2.3803,-2.3753,-2.3746,-2.3809,-2.3809,-2.3809,-2.3809,-2.3809,-2.3809,-2.3688,-2.3715,-2.3713,-2.3742,-2.3745,-2.3764,-2.377,-2.3778,-2.3783,-2.3806,-2.3818,-2.3818,-2.3822,-2.3835,-2.3848,-2.3848,-2.3853,-2.3864,-2.3861,-2.3814,-2.3807,-2.38,-2.3793,-2.3866,-2.3866,-2.391,-2.391,-2.391]}]]